Location: Ahausen
(50.4985°N, 8.2722°E)
Time: 07:05:30
(UTC+00:00)

USA 186 - Pass Details

Date: 18 September 2020
Orbit: 261 x 425 km, 96.9° (Epoch: 12 October)

Event Time Altitude Azimuth Distance (km) Brightness Sun altitude
Exits shadow 18:49:23 10° 162° (SSE) 1,425 4.1 -12.7°
Maximum altitude 18:52:26 78° 76° (ENE) 426 1.6 -13.2°
Drops below altitude 10° 18:55:41 10° 350° (N) 1,517 5.0 -13.7°
Sets 18:57:45 0° 349° (N) 2,401 6.0 -14.0°
